Madera, CA

9:04 PM PDT on May 23, 2017 (GMT -0700)
Madera Municipal

Weather History for KMAE - October, 2013

Change the Weather History Date:

Sunday, October 27, 2013

  Actual Average Record
Temperature  
Mean Temperature 63 °F 60 °F  
Max Temperature 80 °F 74 °F 88 °F (1965)
Min Temperature 45 °F 46 °F 38 °F (2010)
Degree Days  
Heating Degree Days 2    
Month to date heating degree days 61  
Since 1 July heating degree days 70  
Cooling Degree Days 0    
Month to date cooling degree days 9  
Year to date cooling degree days 1688  
Growing Degree Days 13 (Base 50)    
Moisture  
Dew Point 43 °F    
Average Humidity 55    
Maximum Humidity 86    
Minimum Humidity 23    
Precipitation  
Precipitation 0.00 in 0.05 in 0.23 in (2016)
Month to date precipitation T 0.63  
Year to date precipitation 3.80 8.92  
Since 1 July precipitation 0.28  
Snow  
Snow 0.00 in - - ()
Month to date snowfall 0.0  
Since 1 July snowfall 0.0  
Since 1 September snowfall 0.0  
Snow Depth 0.00 in    
Sea Level Pressure  
Sea Level Pressure 29.83 in    
Wind  
Wind Speed 6 mph (SE)    
Max Wind Speed 15 mph    
Max Gust Speed 39 mph    
Visibility 8 miles    
Events      
T = Trace of Precipitation, MM = Missing Value Source: NWS Daily Summary

Daily Weather History Graph

Daily Weather History Graph

Search for Another Location

Airport or City:

Trip Planner

Search our weather history database for the weather conditions in past years. The results will help you decide how hot, cold, wet, or windy it might be!

Date:

Astronomy

Oct. 27, 2013 Rise Set
Actual Time 7:19 AM PDT 6:08 PM PDT
Civil Twilight 6:53 AM PDT 6:34 PM PDT
Nautical Twilight 6:22 AM PDT 7:05 PM PDT
Astronomical Twilight 5:52 AM PDT 7:35 PM PDT
Moon 12:31 AM PDT (10/27) 2:11 PM PDT (10/27)
Length of Visible Light 11h 41m
Length of Day
10h 48m
Last Quarter, 42% of the Moon is Illuminated
Oct 27
Last Quarter
Nov 3
New
Nov 9
First Quarter
Nov 17
Full
Nov 25
Last Quarter

Hourly Weather History & Observations

Time (PDT) Temp. Dew Point Humidity Pressure Visibility Wind Dir Wind Speed Gust Speed Precip Events Conditions
12:53 AM 51.1 °F 46.0 °F 83% 30.01 in 5.0 mi North - - N/A   Haze
1:53 AM 53.1 °F 44.1 °F 71% 30.00 in 7.0 mi North - - N/A   Clear
2:53 AM 51.1 °F 42.1 °F 71% 29.99 in 8.0 mi North - - N/A   Clear
3:53 AM 50.0 °F 43.0 °F 77% 29.97 in 7.0 mi North - - N/A   Clear
4:53 AM 48.0 °F 41.0 °F 77% 29.96 in 10.0 mi North - - N/A   Clear
5:53 AM 46.9 °F 42.1 °F 83% 29.96 in 8.0 mi North - - N/A   Clear
6:53 AM 48.0 °F 42.1 °F 80% 29.95 in 7.0 mi North - - N/A   Clear
7:53 AM 50.0 °F 42.1 °F 74% 29.95 in 9.0 mi ENE 5.8 mph - N/A   Clear
8:53 AM 57.9 °F 45.0 °F 62% 29.95 in 6.0 mi East 8.1 mph - N/A   Haze
9:53 AM 64.0 °F 46.0 °F 52% 29.94 in 4.0 mi ESE 6.9 mph - N/A   Haze
10:53 AM 70.0 °F 46.0 °F 42% 29.92 in 6.0 mi ESE 6.9 mph - N/A   Haze
11:53 AM 73.0 °F 46.0 °F 38% 29.90 in 7.0 mi SSE 5.8 mph - N/A   Clear
12:53 PM 75.9 °F 45.0 °F 33% 29.86 in 8.0 mi SSW 4.6 mph - N/A   Clear
1:53 PM 77.0 °F 45.0 °F 32% 29.82 in 8.0 mi South 8.1 mph - N/A   Clear
2:53 PM 80.1 °F 43.0 °F 27% 29.78 in 9.0 mi SSW 5.8 mph - N/A   Clear
3:53 PM 80.1 °F 39.9 °F 24% 29.76 in 10.0 mi Calm Calm - N/A   Clear
4:53 PM 79.0 °F 42.1 °F 27% 29.73 in 10.0 mi Calm Calm - N/A   Clear
5:53 PM 73.0 °F 45.0 °F 37% 29.70 in 10.0 mi SSE 4.6 mph - N/A   Clear
6:53 PM 64.0 °F 45.0 °F 50% 29.71 in 4.0 mi NW 11.5 mph 20.7 mph N/A   Haze
7:11 PM 61.0 °F 43.0 °F 52% 29.72 in 6.0 mi NW 8.1 mph - N/A   Haze
7:53 PM 57.9 °F 43.0 °F 58% 29.72 in 8.0 mi NW 5.8 mph 29.9 mph N/A   Clear
8:43 PM 55.9 °F 42.1 °F 60% 29.73 in 6.0 mi North - - N/A   Haze
8:53 PM 55.9 °F 42.1 °F 60% 29.73 in 5.0 mi North - - N/A   Haze
9:18 PM 55.0 °F 42.1 °F 62% 29.74 in 5.0 mi North - - N/A   Haze
9:53 PM 55.0 °F 42.1 °F 62% 29.73 in 10.0 mi North - - N/A   Scattered Clouds
10:53 PM 53.1 °F 42.1 °F 66% 29.70 in 10.0 mi North - - N/A   Clear
11:09 PM 52.0 °F 43.0 °F 71% 29.71 in 10.0 mi North - - N/A   Mostly Cloudy
11:46 PM 51.1 °F 43.0 °F 74% 29.71 in 10.0 mi North - - N/A   Overcast
11:53 PM 51.1 °F 42.1 °F 71% 29.71 in 10.0 mi North - - N/A   Overcast